Regional Weather Roundup
Issued by NWS

Home | Current Version | Previous Version | Text Only | Print | Product List | Glossary On
Versions: 1 2 3 4 5 6 7 8 9 10 11 12 13 14 15 16 17 18 19 20 21 22 23 24 25 26 27 28 29 30 31 32 33 34 35 36 37 38 39 40 41 42 43 44 45 46 47 48 49 50
000
ASUS43 KLOT 050122
RWRIL

ILLINOIS REGIONAL WEATHER ROUNDUP
NATIONAL WEATHER SERVICE CHICAGO/ROMEOVILLE IL
800 PM CDT FRI SEP 04 2015

NOTE: "FAIR" INDICATES FEW OR NO CLOUDS BELOW 12,000 FEET WITH NO
SIGNIFICANT WEATHER AND/OR OBSTRUCTIONS TO VISIBILITY.

* THESE STATIONS ARE NOT UNDER NWS QUALITY CONTROL. THEY ALSO MAY NOT
  REPORT WEATHER SUCH AS PRECIPITATION OR FOG.

ILZ001-002-007-009-015-016-024-050200-
NORTHWEST ILLINOIS

CITY           SKY/WX    TMP DP  RH WIND       PRES   REMARKS
MOLINE         CLEAR     79  72  79 CALM      29.97R HX  82
STERLING*      PTCLDY    81  73  78 E3        29.98R HX  85
SAVANNA*       PTCLDY    80  73  79 E3        29.98R HX  83
$$

ILZ003-004-008-010-011-017-018-050200-
NORTH CENTRAL ILLINOIS

CITY           SKY/WX    TMP DP  RH WIND       PRES   REMARKS
ROCKFORD       PTCLDY    82  73  74 CALM      30.01R HX  87
FREEPORT*      MOCLDY    76  73  88 CALM      30.02R
ROCHELLE*      CLEAR     78  73  85 CALM      30.01R
DE KALB*       MOCLDY    76  71  84 E5        30.02S
PERU*          CLEAR     83  69  61 CALM      30.00R HX  87
$$

ILZ005-006-012>014-019>023-050200-
NORTHEAST ILLINOIS

CITY           SKY/WX    TMP DP  RH WIND       PRES   REMARKS
CHICAGO-OHARE  PTCLDY    73  67  81 E8        30.02F
CHICAGO-MIDWAY FAIR      75  66  73 E8        30.03S
AURORA         CLEAR     79  69  71 E13       30.02R HX  81
LANSING*       PTCLDY    73  67  83 NE3       30.03R
JOLIET*        PTCLDY    77  70  79 E8        30.01R
WAUKEGAN       CLOUDY    68  67  96 E6        30.04S
DUPAGE AIRPORT CLEAR     75  66  73 E7        30.02S
KANKAKEE*      MOCLDY    74  67  81 E5        30.01F
WHEELING       PTCLDY    71  66  84 E6        30.05R
MORRIS*        CLEAR     78  72  81 E9        29.99R HX  80
ROMEOVILLE*    CLEAR     74  66  76 E6        30.02S
NORTHERLY ISL    N/A     71  67  87 E6          N/A
$$

LMZ740>746-050200-
SOUTHERN LAKE MICHIGAN

STATION/POSITION SKY/WX   TEMP    WIND        PRES    VSBY  WAVE
                          AIR SEA DIR/SP/G                  HT/PER
                          (F)     (DEG/KT/KT) (MB)    (MI)  (FT/S)
SOUTHERN BUOY              67 71   50/  8/ 10 1016.8R         1
WILMETTE HARBOR            71 71  270/  6/  8   N/A           1/ 3
HARRISON CRIB              71      70/  5/  7   N/A
BURNHAM HARBOR             71      60/  5/  6   N/A
CALUMET HARBOR             72      40/  5/  6   N/A
BURNS HARBOR               72      70/ 10/ 12 1017.3F
MICHIGAN CITY              71      40/  9/  9   N/A
MICHIGAN CITY 6N           72 74  100/  8/  8   N/A           1
ST. JOSEPH                 71 76  100/  6/  8   N/A           1
$$

ILZ025>027-034>036-040-047-049-050-058-095>099-050200-
WEST-CENTRAL ILLINOIS

CITY           SKY/WX    TMP DP  RH WIND       PRES   REMARKS
QUINCY         PTCLDY    83  69  62 SE6       29.98R HX  86
GALESBURG*     PTCLDY    78  72  81 SE3       29.99R HX  80
MACOMB*        CLEAR     79  69  72 S3        30.00S HX  81
JACKSONVILLE*  CLEAR     82  71  68 CALM      29.98S HX  86
PITTSFIELD*    PTCLDY    81  71  70 S3        30.00S HX  85
$$

ILZ028>032-037-038-041>044-048-051>054-059>061-050200-
CENTRAL ILLINOIS

CITY           SKY/WX    TMP DP  RH WIND       PRES   REMARKS
PONTIAC        CLEAR     77  68  73 E5        30.00S
BLOOMINGTON    MOCLDY    80  64  58 SE13      30.01S HX  81
DECATUR        PTCLDY    83  66  56 S5        30.00S HX  85
PEORIA         CLEAR     85  71  63 CALM      29.98S HX  90
LACON*         CLEAR     80  71  74 CALM      29.98R HX  84
LINCOLN*       CLEAR     86  67  52 CALM      29.97S HX  88
SPRINGFIELD    CLEAR     81  69  67 SW5       29.99S HX  84
TAYLORVILLE    CLEAR     79  70  73 SW5       30.00S HX  81
$$

ILZ033-039-045-046-055>057-062-063-050200-
EAST-CENTRAL ILLINOIS

CITY           SKY/WX    TMP DP  RH WIND       PRES   REMARKS
CHAMPAIGN      MOCLDY    79  65  62 N13G21    30.05R THUNDER HX  81
RANTOUL*       TSTM      78  69  75 SW14      30.05R HX  80
MATTOON        MOCLDY    82  69  64 S3        30.00S HX  85
PARIS*         CLOUDY    79  65  62 NE16G26   30.05R THUNDER HX  80
$$

ILZ079-100>102-050200-
SOUTHWEST ILLINOIS

CITY           SKY/WX    TMP DP  RH WIND       PRES   REMARKS
ALTON          PTCLDY    77  72  83 CALM      29.99S
BELLEVILLE     CLEAR     81  76  85 CALM      29.98S HX  86
CAHOKIA*       CLEAR     83  71  67 S5        29.98S HX  87
SPARTA*        CLEAR     82  72  71 CALM      30.01S HX  86
$$

ILZ064>066-069>071-074>076-080>082-084>086-088>090-092>094-050200-
SOUTH-CENTRAL ILLINOIS

CITY           SKY/WX    TMP DP  RH WIND       PRES   REMARKS
CARBONDALE     CLEAR     77  72  84 CALM      30.00R
CAIRO*         CLEAR     76  75  96 CALM      29.99S
EFFINGHAM*     CLEAR     78  70  75 CALM      30.02S HX  80
MARION         CLEAR     79  72  78 CALM      30.01S HX  82
MT. VERNON     CLEAR     73  66  78 CALM      30.01S
CENTRALIA*     CLEAR     80  75  85 CALM      30.00S HX  84
SALEM*         CLEAR     78  72  82 CALM      30.00F HX  81
METROPOLIS*    CLEAR     77  73  88 CALM      30.00S
$$

ILZ067-068-072-073-078-083-087-091-050200-
SOUTHEAST ILLINOIS

CITY           SKY/WX    TMP DP  RH WIND       PRES   REMARKS
LAWRENCEVILLE  PTCLDY    81  71  71 CALM      30.01R HX  85
FLORA*         PTCLDY    79  69  70 SW3       30.01S HX  82
FAIRFIELD*     CLEAR     78  72  81 CALM      29.99F HX  80
HARRISBURG*    CLEAR     79  72  79 CALM      30.01R HX  82
ROBINSON*      MOCLDY    77  71  82 CALM      30.02R
CARMI*         CLEAR     78  73  84 CALM      30.00S HX  81
$$

ABBREVIATIONS USED IN REMARKS
   TC - TEMPERATURE IN CELSIUS
  WCI - WIND CHILL INDEX
   HX - HEAT INDEX
  VSB - VISIBILITY
$$



USA.gov is the U.S. government's official web portal to all federal, state and local government web resources and services.